This demonstration page uses our WeatherBlox Daily Observations layout. Learn more.

38.88101, -77.10428

Hourly Observations for March 29, 2016

Temp ( °F °C ) Dew Point ( °F °C ) Humidity (%) Winds ( mph kmh ) Pressure ( in mb ) Visibility ( mi km ) Precip ( " mm )
12:52 am 00:52 Mostly Cloudy 55 12.8 35 1.7 47 47 NW 16 26 29.97 1015 10 16.09344 0 0
1:52 am 01:52 Mostly Cloudy 51 10.6 36 2.2 56 56 NNW 21 33 29.97 1015 10 16.09344 0 0
2:52 am 02:52 Mostly Clear 50 10 33 0.6 52 52 NNW 14 22 30 1016 10 16.09344 0 0
3:52 am 03:52 Mostly Cloudy 49 9.4 32 0 52 52 NNW 17 28 30 1016 10 16.09344 0 0
4:52 am 04:52 Mostly Cloudy 49 9.4 30 -1.1 48 48 NW 13 20 30.03 1017 10 16.09344 0 0
5:52 am 05:52 Partly Cloudy 49 9.4 30 -1.1 48 48 NW 13 20 30.06 1018 10 16.09344 0 0
6:52 am 06:52 Mostly Clear 48 8.9 30 -1.1 50 50 NW 15 24 30.09 1019 10 16.09344 0 0
7:52 am 07:52 Mostly Sunny 48 8.9 31 -0.6 52 52 NNW 15 24 30.12 1020 10 16.09344 0 0
8:52 am 08:52 Mostly Sunny 50 10 30 -1.1 46 46 NW 17 28 30.12 1020 10 16.09344 0 0
9:52 am 09:52 Mostly Sunny 51 10.6 30 -1.1 44 44 NNW 25 41 30.12 1020 10 16.09344 0 0
10:52 am 10:52 Mostly Sunny 54 12.2 30 -1.1 40 40 NNW 16 26 30.15 1021 10 16.09344 0 0
11:52 am 11:52 Mostly Sunny 55 12.8 29 -1.7 37 37 NW 20 31 30.15 1021 10 16.09344 0 0
12:52 pm 12:52 Mostly Sunny 56 13.3 26 -3.3 32 32 WNW 21 33 30.12 1020 10 16.09344 0 0
1:52 pm 13:52 Mostly Sunny 57 13.9 28 -2.2 33 33 WNW 16 26 30.12 1020 10 16.09344 0 0
2:52 pm 14:52 Sunny 59 15 27 -2.8 29 29 NW 21 33 30.12 1020 10 16.09344 0 0
3:52 pm 15:52 Sunny 59 15 26 -3.3 28 28 WNW 16 26 30.12 1020 10 16.09344 0 0
4:52 pm 16:52 Sunny 60 15.6 26 -3.3 27 27 NNW 14 22 30.09 1019 10 16.09344 0 0
5:52 pm 17:52 Sunny 59 15 24 -4.4 26 26 NNW 20 31 30.12 1020 10 16.09344 0 0
6:52 pm 18:52 Sunny 58 14.4 24 -4.4 27 27 NW 16 26 30.15 1021 10 16.09344 0 0
7:52 pm 19:52 Clear 56 13.3 24 -4.4 29 29 NW 10 17 30.18 1022 10 16.09344 0 0
8:52 pm 20:52 Clear 55 12.8 23 -5 29 29 NW 10 17 30.21 1023 10 16.09344 0 0
9:52 pm 21:52 Clear 54 12.2 24 -4.4 31 31 NW 9 15 30.24 1024 10 16.09344 0 0
10:52 pm 22:52 Mostly Clear 53 11.7 24 -4.4 32 32 NW 10 17 30.24 1024 10 16.09344 0 0
11:52 pm 23:52 Clear 47 8.3 29 -1.7 50 50 N 8 13 30.27 1025 10 16.09344 0 0

Powered by AerisWeather